Starlink 11413

operational
NORAD ID: 62593 Int'l Des: 2025-008 Owner: SPXS Country: US Constellation: starlink
LEOCIRCULAR

关于 Starlink 11413

正在加载描述...

实时位置

正在加载3D地球...

即将过境

高度历史

Altitude vs Time

uPlot chart will show altitude changes over time

两行轨道根数

1 62593U 25008G 25259.93329524 .00204381 00000-0 15565-2 0 9992
2 62593 43.0001 93.7990 0001885 259.1129 100.9526 15.70853536 39854
Epoch: Sep 16, 2025 • Age: 23 hours

当前状态

高度 367.4 km
速度 7.69 km/s
星下点 -43.03°S, 52.82°E
发射日期 Jan 13, 2025
运行时间 0.6 years
类型 internet

技术详情

分类 Payload
质量 960.00 kg
干质量 910.00 kg
总质量 960.00 kg
长度 0.30 m
直径 4.10 m
跨度 29.00 m
形状 Box + pan
制造商 SPXS
平台类型 Starlink V2MD
阶段状态 In Orbit
所有者/国家 SPXS/US

大型星座

Loading constellations...